• In Hungary
  • List of Countries
  • For 7 days
  • Water Temperature
  • Satellite Maps
  • Weather Map
  • News
  • Weather Widgets
  • user-avatar
    Login

    Hourly Weather Davletshinskiy

    Today, 28 May, Monday

    Time Temperature Precipitation Wind Pressure Humidity
    00:00 +9°C° 0 mm 5 mps 734 mmHg 73%
    01:00 +9°C° 0 mm 5 mps 733 mmHg 72%
    02:00 +9°C° 0 mm 5 mps 732 mmHg 71%
    03:00 +9°C° 0 mm 6 mps 732 mmHg 70%
    04:00 +9°C° 0 mm 6 mps 731 mmHg 69%
    05:00 +9°C° 0.1 mm 7 mps 730 mmHg 71%
    06:00 +9°C° 0.1 mm 7 mps 730 mmHg 72%
    07:00 +10°C° 0.1 mm 8 mps 729 mmHg 74%
    08:00 +9°C° 1.5 mm 7 mps 729 mmHg 80%
    09:00 +9°C° 1.5 mm 7 mps 728 mmHg 86%
    10:00 +8°C° 1.5 mm 7 mps 728 mmHg 92%
    11:00 +9°C° 0.6 mm 6 mps 728 mmHg 86%
    12:00 +10°C° 0.6 mm 5 mps 729 mmHg 79%
    13:00 +12°C° 0.6 mm 4 mps 729 mmHg 73%
    14:00 +12°C° 0.4 mm 4 mps 729 mmHg 71%
    15:00 +12°C° 0.4 mm 4 mps 730 mmHg 69%
    16:00 +13°C° 0.4 mm 5 mps 730 mmHg 67%
    17:00 +11°C° 0.5 mm 4 mps 730 mmHg 72%
    18:00 +10°C° 0.5 mm 4 mps 730 mmHg 77%
    19:00 +8°C° 0.5 mm 4 mps 730 mmHg 82%
    20:00 +7°C° 0.1 mm 4 mps 730 mmHg 84%
    21:00 +6°C° 0.1 mm 4 mps 731 mmHg 86%
    22:00 +5°C° 0.1 mm 4 mps 731 mmHg 88%
    23:00 +4°C° 0 mm 4 mps 731 mmHg 88%

    Tomorrow, 29 May, Tuesday

    Time Temperature Precipitation Wind Pressure Humidity
    00:00 +4°C° 0 mm 4 mps 732 mmHg 88%
    01:00 +3°C° 0 mm 4 mps 732 mmHg 89%
    02:00 +1°C° 0 mm 4 mps 732 mmHg 89%
    03:00 0°C° 0 mm 4 mps 732 mmHg 89%
    04:00 0°C° 0 mm 4 mps 733 mmHg 90%
    05:00 +1°C° 0 mm 4 mps 733 mmHg 85%
    06:00 +2°C° 0 mm 5 mps 733 mmHg 81%
    07:00 +3°C° 0 mm 5 mps 734 mmHg 77%
    08:00 +6°C° 0 mm 5 mps 734 mmHg 69%
    09:00 +7°C° 0 mm 6 mps 734 mmHg 61%
    10:00 +8°C° 0 mm 6 mps 734 mmHg 53%
    11:00 +9°C° 0 mm 6 mps 734 mmHg 51%
    12:00 +9°C° 0 mm 6 mps 733 mmHg 49%
    13:00 +10°C° 0 mm 6 mps 733 mmHg 48%
    14:00 +10°C° 0 mm 6 mps 733 mmHg 51%
    15:00 +10°C° 0 mm 6 mps 733 mmHg 54%
    16:00 +9°C° 0 mm 6 mps 732 mmHg 56%
    17:00 +8°C° 0.4 mm 5 mps 732 mmHg 67%
    18:00 +7°C° 0.4 mm 4 mps 732 mmHg 77%
    19:00 +7°C° 0.4 mm 3 mps 731 mmHg 87%
    20:00 +7°C° 0.3 mm 3 mps 731 mmHg 90%
    21:00 +7°C° 0.3 mm 3 mps 731 mmHg 92%
    22:00 +7°C° 0.3 mm 3 mps 731 mmHg 95%
    23:00 +5°C° 0 mm 3 mps 730 mmHg 95%

    Day after tomorrow, 30 May, Wednesday

    Time Temperature Precipitation Wind Pressure Humidity
    00:00 +5°C° 0 mm 3 mps 730 mmHg 96%
    01:00 +5°C° 0 mm 2 mps 730 mmHg 96%
    02:00 +5°C° 0 mm 2 mps 730 mmHg 96%
    03:00 +5°C° 0 mm 1 mps 730 mmHg 97%
    04:00 +4°C° 0 mm 1 mps 730 mmHg 97%
    05:00 +6°C° 0 mm 1 mps 731 mmHg 94%
    06:00 +7°C° 0 mm 1 mps 731 mmHg 90%
    07:00 +8°C° 0 mm 1 mps 731 mmHg 87%
    08:00 +9°C° 0 mm 2 mps 731 mmHg 84%
    09:00 +10°C° 0 mm 3 mps 731 mmHg 81%
    10:00 +11°C° 0 mm 3 mps 730 mmHg 78%
    11:00 +11°C° 0.6 mm 3 mps 730 mmHg 82%
    12:00 +12°C° 0.6 mm 3 mps 730 mmHg 86%
    13:00 +12°C° 0.6 mm 4 mps 729 mmHg 89%
    14:00 +13°C° 0.3 mm 4 mps 729 mmHg 86%
    15:00 +15°C° 0.3 mm 5 mps 729 mmHg 82%
    16:00 +16°C° 0.3 mm 5 mps 728 mmHg 78%
    17:00 +16°C° 0.4 mm 5 mps 728 mmHg 78%
    18:00 +16°C° 0.4 mm 5 mps 728 mmHg 79%
    19:00 +16°C° 0.4 mm 5 mps 728 mmHg 79%
    20:00 +15°C° 0 mm 5 mps 727 mmHg 81%
    21:00 +14°C° 0 mm 5 mps 727 mmHg 83%
    22:00 +13°C° 0 mm 5 mps 727 mmHg 84%
    23:00 +12°C° 0.1 mm 5 mps 727 mmHg 85%

    31 May, Thursday

    Time Temperature Precipitation Wind Pressure Humidity
    00:00 +11°C° 0.1 mm 6 mps 726 mmHg 85%
    01:00 +11°C° 0.1 mm 6 mps 726 mmHg 86%
    02:00 +11°C° 0.1 mm 6 mps 725 mmHg 87%
    03:00 +11°C° 0.1 mm 6 mps 725 mmHg 88%
    04:00 +11°C° 0.1 mm 7 mps 725 mmHg 89%
    05:00 +12°C° 0.3 mm 7 mps 725 mmHg 90%
    06:00 +12°C° 0.3 mm 7 mps 725 mmHg 90%
    07:00 +12°C° 0.3 mm 7 mps 725 mmHg 91%
    08:00 +14°C° 0.3 mm 7 mps 725 mmHg 91%
    09:00 +14°C° 0.3 mm 7 mps 725 mmHg 90%
    10:00 +15°C° 0.3 mm 7 mps 725 mmHg 90%
    11:00 +15°C° 0.7 mm 7 mps 725 mmHg 88%
    12:00 +16°C° 0.7 mm 7 mps 725 mmHg 86%
    13:00 +17°C° 0.7 mm 7 mps 725 mmHg 84%
    14:00 +17°C° 1.5 mm 7 mps 725 mmHg 85%
    15:00 +16°C° 1.5 mm 6 mps 725 mmHg 86%
    16:00 +16°C° 1.5 mm 6 mps 725 mmHg 88%
    17:00 +15°C° 1.7 mm 6 mps 725 mmHg 89%
    18:00 +15°C° 1.7 mm 5 mps 725 mmHg 91%
    19:00 +14°C° 1.7 mm 5 mps 725 mmHg 93%
    20:00 +13°C° 1 mm 4 mps 726 mmHg 94%
    21:00 +12°C° 1 mm 3 mps 726 mmHg 94%
    22:00 +11°C° 1 mm 3 mps 726 mmHg 95%
    23:00 +10°C° 0.4 mm 3 mps 727 mmHg 95%

    1 June, Friday

    Time Temperature Precipitation Wind Pressure Humidity
    00:00 +10°C° 0.4 mm 2 mps 727 mmHg 95%
    01:00 +9°C° 0.4 mm 2 mps 728 mmHg 95%
    02:00 +8°C° 0.5 mm 2 mps 728 mmHg 94%
    03:00 +7°C° 0.5 mm 2 mps 729 mmHg 94%
    04:00 +7°C° 0.5 mm 2 mps 729 mmHg 93%
    05:00 +7°C° 0.2 mm 2 mps 730 mmHg 92%
    06:00 +7°C° 0.2 mm 2 mps 730 mmHg 90%
    07:00 +6°C° 0.2 mm 2 mps 730 mmHg 88%
    08:00 +7°C° 0 mm 2 mps 731 mmHg 84%
    09:00 +8°C° 0 mm 2 mps 731 mmHg 79%
    10:00 +9°C° 0 mm 3 mps 731 mmHg 75%
    11:00 +10°C° 0 mm 2 mps 731 mmHg 69%
    12:00 +12°C° 0 mm 2 mps 731 mmHg 62%
    13:00 +14°C° 0 mm 2 mps 731 mmHg 55%
    14:00 +14°C° 0 mm 2 mps 731 mmHg 55%
    15:00 +15°C° 0 mm 2 mps 731 mmHg 55%
    16:00 +15°C° 0 mm 2 mps 731 mmHg 55%
    17:00 +13°C° 0 mm 3 mps 731 mmHg 61%
    18:00 +12°C° 0 mm 3 mps 731 mmHg 67%
    19:00 +11°C° 0 mm 3 mps 731 mmHg 73%
    20:00 +10°C° 0 mm 3 mps 731 mmHg 76%
    21:00 +9°C° 0 mm 3 mps 732 mmHg 78%
    22:00 +7°C° 0 mm 4 mps 732 mmHg 81%
    23:00 +7°C° 0 mm 3 mps 732 mmHg 82%

    2 June, Saturday

    Time Temperature Precipitation Wind Pressure Humidity
    00:00 +7°C° 0 mm 3 mps 732 mmHg 84%
    01:00 +5°C° 0 mm 3 mps 732 mmHg 85%
    02:00 +5°C° 0 mm 3 mps 732 mmHg 87%
    03:00 +5°C° 0 mm 3 mps 732 mmHg 88%
    04:00 +4°C° 0 mm 3 mps 731 mmHg 89%
    05:00 +5°C° 0 mm 3 mps 732 mmHg 87%
    06:00 +6°C° 0 mm 4 mps 732 mmHg 84%
    07:00 +7°C° 0 mm 4 mps 732 mmHg 81%
    08:00 +10°C° 0 mm 4 mps 732 mmHg 75%
    09:00 +12°C° 0 mm 4 mps 732 mmHg 69%
    10:00 +14°C° 0 mm 4 mps 732 mmHg 64%
    11:00 +15°C° 0 mm 4 mps 732 mmHg 61%
    12:00 +17°C° 0 mm 4 mps 732 mmHg 58%
    13:00 +17°C° 0 mm 4 mps 732 mmHg 55%
    14:00 +17°C° 0 mm 4 mps 732 mmHg 56%
    15:00 +17°C° 0 mm 4 mps 732 mmHg 56%
    16:00 +16°C° 0 mm 5 mps 732 mmHg 56%
    17:00 +15°C° 0 mm 4 mps 732 mmHg 61%
    18:00 +14°C° 0 mm 4 mps 733 mmHg 65%
    19:00 +13°C° 0 mm 4 mps 733 mmHg 69%
    20:00 +12°C° 0 mm 4 mps 733 mmHg 73%
    21:00 +10°C° 0 mm 3 mps 733 mmHg 77%
    22:00 +8°C° 0 mm 3 mps 733 mmHg 80%
    23:00 +8°C° 0 mm 3 mps 734 mmHg 83%
    Show more